Wind_Speed
19 19 19 20 20 20 19 18 17 17 18 19 19 19 18 18 18 18 17 17 17 17 17 16 15 15 15 15 14 14 14 13 12 12 11 10 10 9 9 9 9 8 8 7 7 6 6 6 5
20 20 21 21 22 21 20 19 19 19 19 20 20 20 20 20 19 19 18 18 18 18 18 18 17 16 16 16 16 16 16 15 14 13 13 13 12 12 11 10 10 10 10 9 9 8 7 7 7
21 22 23 23 23 22 21 19 19 20 20 21 22 22 22 21 21 21 20 20 20 20 20 20 19 18 17 17 17 17 17 17 16 15 15 14 14 14 14 13 12 12 11 11 10 10 9 8 8
23 23 24 25 24 23 22 21 21 21 22 22 23 23 23 23 22 22 22 22 22 22 21 21 21 20 20 19 19 19 18 18 18 17 17 16 16 16 16 16 15 14 13 13 12 11 11 10 9
24 25 26 26 25 24 24 24 23 23 24 24 24 24 24 24 24 24 24 24 24 24 23 23 23 22 22 22 21 21 20 19 19 19 19 19 18 18 18 18 17 16 15 14 14 13 12 12 11
26 27 28 27 26 26 26 26 25 25 25 26 26 26 25 26 26 25 25 25 26 26 26 25 26 25 25 24 24 23 22 22 21 21 21 21 20 20 20 19 18 18 17 16 15 15 14 14 13
28 29 29 29 28 28 28 28 27 27 27 27 27 27 27 27 27 27 27 28 28 28 28 27 27 27 27 26 25 25 25 24 24 24 23 23 22 22 22 21 20 20 19 19 18 17 16 15 15
29 30 31 30 30 30 29 29 29 28 28 29 29 29 29 29 30 30 30 30 30 29 29 29 29 29 29 28 28 27 27 27 26 26 26 25 25 24 24 24 23 22 21 21 20 19 19 18 17
29 30 31 31 31 31 30 30 30 30 30 30 30 30 30 31 31 31 31 31 31 31 31 31 31 31 30 30 31 30 29 29 28 28 28 27 27 27 26 26 25 25 24 23 22 22 21 20 19
29 31 31 31 32 32 32 31 31 31 31 31 31 32 32 32 32 32 32 32 32 32 33 33 33 33 32 32 32 32 31 31 31 30 30 29 29 28 28 28 28 27 26 26 25 24 24 22 21
30 31 31 32 32 33 33 33 33 32 33 33 32 33 33 33 33 33 33 34 34 34 34 34 35 35 34 34 34 34 33 33 33 33 32 32 32 31 31 30 30 29 29 28 28 27 26 25 24
30 31 31 32 33 34 34 34 34 34 34 34 34 34 35 35 35 35 35 35 35 36 36 36 37 37 36 36 36 36 36 35 35 34 34 34 34 34 34 33 33 33 32 31 30 29 28 28 27
30 31 32 32 33 34 35 35 35 35 35 35 35 35 36 37 37 37 37 37 37 37 37 38 38 38 38 38 38 38 38 37 37 37 36 36 36 36 36 35 35 35 34 34 33 32 31 30 29
30 31 32 33 34 35 37 37 37 36 36 37 37 37 37 37 38 38 38 38 38 38 38 39 39 40 40 40 40 40 40 39 39 39 38 38 38 37 37 38 38 38 37 37 36 35 34 33 32
30 31 32 33 35 36 37 38 37 36 36 37 38 38 38 39 39 39 39 39 39 39 40 40 40 41 41 42 42 41 41 41 41 41 41 40 40 40 40 39 39 39 40 39 39 38 37 36 35
31 32 32 33 35 36 37 37 37 37 36 37 38 38 39 39 40 40 40 40 40 41 41 41 42 42 42 43 43 44 44 44 44 43 43 43 43 42 42 41 41 41 41 41 41 41 40 39 38
31 31 32 32 33 35 36 36 36 36 36 37 38 39 40 40 40 41 41 42 41 42 42 43 43 44 44 45 45 45 46 46 47 47 47 47 47 46 45 45 44 44 43 43 43 43 43 42 41
31 30 31 31 32 34 35 36 35 36 36 37 38 38 39 40 41 42 42 43 43 43 43 44 45 45 46 46 47 47 48 48 49 49 49 49 49 48 48 48 47 46 45 45 45 45 44 43 43
29 29 29 30 32 33 34 34 34 35 36 37 38 38 38 40 40 42 43 44 44 45 45 45 46 47 48 48 48 49 49 50 51 51 50 50 50 50 50 49 49 49 48 47 47 47 46 45 45
27 28 29 30 31 32 33 33 32 34 35 36 37 38 38 39 40 41 42 44 45 46 46 46 47 48 49 50 50 50 50 50 51 52 52 52 51 51 51 50 50 49 49 49 49 49 48 48 47
26 28 28 28 30 31 32 31 31 32 33 34 36 37 38 39 39 40 41 43 44 46 47 47 48 49 49 50 50 51 51 52 52 52 52 52 52 52 52 51 51 51 51 50 50 49 50 50 49
26 27 27 27 28 29 29 31 29 30 32 33 35 36 37 38 39 40 40 42 44 45 47 48 49 49 49 50 50 51 51 51 52 52 52 52 52 52 52 52 52 52 52 51 51 50 50 50 51
25 25 26 27 27 28 28 30 30 29 31 33 34 35 36 37 38 40 40 41 42 44 45 47 48 49 49 50 50 50 50 50 51 51 52 51 51 52 53 52 53 52 52 51 51 51 50 51 52
25 26 26 25 25 26 27 29 30 29 30 31 33 35 36 36 38 39 40 41 42 43 43 44 46 47 49 49 50 50 50 50 50 50 51 51 51 52 52 51 53 53 53 52 52 52 51 51 51
25 25 25 25 25 26 26 28 29 28 30 31 32 34 35 36 37 38 39 41 42 43 43 44 45 47 49 49 49 49 50 50 50 50 51 51 51 52 52 52 53 53 54 53 52 52 52 52 52
24 24 25 26 28 28 27 28 28 28 29 31 31 33 34 35 37 38 40 40 41 42 42 44 44 46 47 48 49 49 49 49 49 49 50 51 51 52 52 53 53 53 54 55 54 54 53 53 53
24 25 26 27 29 30 29 29 30 30 31 31 32 33 34 35 37 39 39 40 40 41 41 42 43 44 45 47 49 49 50 49 48 48 49 51 51 51 52 53 54 54 54 55 55 53 54 54 53
25 26 26 27 29 30 30 29 30 31 32 31 32 33 34 35 37 38 39 40 40 40 41 42 42 43 44 46 47 48 49 49 49 48 48 49 50 51 51 51 53 54 54 55 55 54 55 55 54
26 26 27 28 28 31 31 29 30 31 32 32 32 33 34 35 36 38 39 39 40 40 41 42 43 44 44 45 45 46 47 48 49 49 49 49 51 52 52 52 52 53 52 53 55 54 54 54 53
28 27 27 28 29 30 32 30 30 31 32 33 33 33 34 35 35 36 38 39 40 41 42 42 43 44 44 45 45 45 45 46 47 47 47 48 50 51 51 52 52 52 52 53 54 53 53 53 53
Wind_Direction
258 257 257 257 256 256 257 258 257 255 253 253 253 252 251 249 247 246 244 242 241 240 239 241 241 242 241 239 236 235 235 235 233 233 232 230 229 229 230 232 231 231 234 234 235 240 242 240 239
257 257 257 256 256 257 257 257 255 254 254 254 254 254 252 249 247 245 242 241 241 241 241 242 242 242 243 242 241 238 238 238 235 235 237 236 235 234 235 237 236 237 239 240 240 242 243 242 242
257 257 257 256 256 258 259 257 255 254 253 254 255 254 252 250 248 245 243 242 242 242 242 242 244 245 245 244 243 242 241 239 238 239 240 240 239 238 238 238 240 241 243 245 245 244 244 245 245
258 257 257 257 257 258 258 257 255 254 254 254 254 253 251 250 249 246 245 243 243 244 244 243 244 244 246 247 246 243 242 241 240 241 242 242 241 242 240 240 241 243 246 247 248 248 246 246 246
257 257 257 257 257 257 257 256 254 254 254 255 255 254 251 250 249 247 245 244 244 244 245 245 245 245 247 247 247 246 244 243 243 242 242 244 244 243 243 242 242 243 246 247 248 250 248 247 247
258 257 257 257 257 257 256 255 254 254 254 255 255 254 251 250 249 248 246 245 245 245 245 245 246 246 248 247 247 247 246 245 245 245 245 245 245 245 245 244 244 245 245 245 247 249 248 247 246
260 259 258 257 257 256 256 255 254 253 253 253 254 252 250 249 250 249 248 247 246 246 246 245 246 247 248 248 248 247 247 247 247 247 246 246 247 246 246 245 245 246 247 247 248 248 249 249 248
263 261 259 258 257 256 255 255 254 254 253 253 253 251 249 249 250 250 249 249 249 248 247 248 248 248 248 248 249 248 248 248 248 248 247 247 247 247 246 247 246 246 247 248 249 249 248 249 248
263 261 259 258 256 256 255 254 254 253 253 252 252 251 250 250 251 251 251 251 251 250 250 249 249 249 249 249 249 248 248 248 248 248 248 248 248 248 247 247 247 247 247 248 249 249 248 249 249
264 262 260 258 256 255 254 254 254 254 253 253 252 251 250 250 251 252 252 252 253 253 252 252 250 249 250 250 249 248 248 248 248 248 248 248 248 248 248 247 247 247 248 248 249 249 248 248 248
265 264 260 257 256 254 253 253 253 254 254 254 253 251 250 251 252 252 253 253 253 253 253 253 252 250 249 249 249 249 248 248 248 248 248 248 248 249 249 248 247 248 248 248 249 249 249 248 248
268 265 261 258 256 255 254 254 254 254 254 254 254 253 252 253 253 253 253 253 254 254 252 252 252 251 250 250 249 249 249 249 249 249 249 250 249 249 249 250 249 248 249 249 248 249 249 248 248
270 266 263 259 257 256 255 254 255 255 254 254 254 254 253 254 255 254 254 254 254 254 253 252 252 251 251 250 250 250 249 249 249 249 249 250 250 249 249 250 250 248 248 248 249 249 249 249 248
272 269 265 262 259 258 257 256 256 255 254 253 253 253 254 254 255 255 255 255 254 254 254 253 252 251 251 250 250 250 249 249 250 250 249 250 251 251 250 250 251 250 248 248 248 248 249 249 249
275 271 267 264 261 259 258 257 256 255 254 254 254 254 255 255 256 256 256 256 256 255 255 255 253 252 250 250 249 249 249 249 249 250 250 250 251 252 252 251 251 251 250 248 249 248 249 249 249
277 273 269 266 262 259 258 257 256 256 256 256 256 256 256 256 256 257 257 257 256 256 255 255 254 253 252 250 249 249 249 249 249 250 251 250 251 252 251 250 250 251 250 249 250 249 248 249 250
279 274 270 267 263 260 258 258 257 257 256 256 257 257 256 256 256 256 257 257 257 256 255 255 255 254 253 252 250 250 250 251 251 251 251 251 251 251 251 251 250 250 250 250 251 251 249 249 249
279 274 270 268 265 262 261 260 258 257 256 257 257 258 257 256 256 257 257 257 257 257 256 256 256 255 255 254 252 252 251 251 251 251 251 252 252 251 251 250 249 250 250 251 251 250 250 250 249
279 274 272 271 269 266 262 261 260 258 257 257 258 259 258 257 258 258 258 259 258 258 258 257 258 257 257 255 253 252 252 251 251 251 251 251 252 252 252 251 250 250 251 251 251 250 250 250 249
281 278 274 273 271 268 266 263 261 259 259 258 259 259 259 258 258 259 259 259 259 258 258 258 258 258 258 257 255 254 252 251 251 252 251 251 251 251 252 252 250 250 251 252 250 250 250 250 250
284 281 277 276 274 271 269 266 263 261 261 260 260 260 260 260 260 260 260 260 260 259 259 259 259 259 259 259 257 255 253 252 252 252 251 251 251 251 251 251 250 250 250 250 250 250 250 250 250
287 283 281 279 276 274 272 271 266 265 264 263 263 262 262 261 261 261 262 262 262 261 261 260 260 260 260 259 258 257 255 254 253 252 252 252 251 251 250 250 250 250 249 249 249 249 249 250 250
293 288 285 282 279 277 274 273 271 269 267 265 264 264 264 263 263 263 264 264 264 264 263 262 261 260 259 258 258 257 257 255 254 253 253 252 251 250 250 250 250 249 248 247 248 248 248 249 250
297 293 288 286 283 278 276 274 274 273 270 269 267 267 266 266 266 266 267 266 266 266 265 263 262 261 259 259 258 257 257 256 255 254 253 252 251 249 249 250 250 249 247 247 247 248 248 249 250
300 294 289 289 285 281 278 277 277 276 273 272 271 270 269 269 268 269 269 268 269 268 268 265 263 262 260 259 259 258 257 256 255 254 253 252 251 249 248 248 249 248 247 247 247 248 248 249 250
302 296 291 290 287 284 279 278 279 279 277 274 273 273 273 272 271 272 272 271 270 270 270 266 264 263 261 260 259 258 257 256 256 254 253 253 251 249 248 247 247 248 248 248 247 248 248 249 250
301 299 295 291 290 287 282 281 278 279 279 279 277 276 276 275 275 274 274 272 271 271 270 269 267 264 263 261 259 258 258 256 256 256 254 252 251 250 248 248 247 248 248 248 250 249 249 249 250
302 301 296 293 292 292 289 285 285 282 281 280 279 280 279 278 277 276 275 274 272 272 272 271 270 268 266 264 262 259 258 257 256 256 255 253 252 250 249 249 249 249 249 249 249 249 249 249 250
305 301 297 294 293 291 292 291 291 287 282 283 283 282 282 281 280 278 277 276 275 274 273 273 271 269 268 265 265 262 260 259 259 258 258 256 254 252 251 250 251 250 250 249 249 248 247 248 249
306 302 297 294 293 292 290 292 291 288 285 284 286 286 284 283 282 280 279 278 277 275 274 274 273 271 269 266 265 264 263 260 259 259 259 257 255 253 252 251 250 250 250 249 249 249 249 249 250
Height
5805 5806 5807 5808 5809 5810 5811 5813 5815 5816 5816 5817 5818 5819 5820 5822 5824 5828 5828 5828 5829 5830 5831 5832 5833 5835 5836 5837 5838 5840 5841 5842 5843 5844 5845 5847 5848 5849 5850 5851 5852 5854 5855 5856 5857 5857 5858 5859 5860
5801 5802 5803 5803 5804 5805 5808 5810 5811 5812 5813 5813 5814 5815 5816 5817 5819 5821 5822 5824 5825 5827 5828 5829 5830 5831 5833 5834 5836 5837 5838 5839 5841 5842 5843 5845 5846 5847 5849 5850 5851 5852 5853 5854 5855 5856 5857 5858 5858
5796 5797 5798 5798 5799 5801 5804 5806 5807 5807 5808 5809 5810 5811 5812 5814 5815 5816 5818 5820 5821 5823 5825 5826 5827 5828 5830 5831 5833 5834 5835 5836 5838 5839 5841 5842 5843 5845 5846 5848 5849 5850 5851 5852 5853 5854 5855 5856 5857
5792 5792 5793 5794 5795 5798 5800 5801 5802 5803 5804 5805 5806 5807 5808 5810 5811 5812 5814 5816 5817 5819 5821 5822 5823 5825 5826 5827 5829 5830 5832 5833 5834 5836 5837 5839 5840 5842 5843 5845 5846 5848 5849 5850 5851 5852 5853 5854 5855
5785 5786 5787 5787 5790 5792 5794 5795 5797 5798 5799 5800 5801 5802 5803 5804 5806 5807 5809 5811 5813 5815 5816 5818 5819 5821 5822 5823 5825 5826 5828 5829 5831 5832 5834 5835 5837 5838 5840 5842 5843 5845 5846 5847 5848 5849 5851 5852 5853
5779 5779 5780 5782 5785 5787 5788 5789 5791 5792 5793 5794 5795 5796 5798 5799 5800 5802 5804 5806 5808 5810 5811 5813 5814 5816 5817 5819 5820 5822 5823 5825 5826 5828 5830 5831 5833 5835 5836 5838 5840 5841 5843 5844 5845 5847 5848 5849 5850
5772 5772 5773 5776 5778 5780 5781 5782 5784 5785 5787 5788 5789 5790 5792 5793 5795 5797 5798 5800 5802 5804 5806 5807 5809 5811 5812 5814 5816 5817 5819 5820 5822 5823 5825 5827 5829 5830 5832 5834 5836 5838 5839 5840 5842 5843 5845 5846 5847
5763 5764 5765 5768 5770 5772 5774 5775 5777 5778 5780 5781 5782 5784 5786 5788 5789 5791 5792 5794 5796 5798 5800 5801 5803 5805 5806 5808 5810 5811 5813 5815 5816 5818 5820 5822 5824 5825 5827 5829 5831 5833 5835 5836 5838 5839 5841 5842 5844
5755 5756 5757 5760 5761 5764 5766 5767 5769 5770 5772 5773 5775 5777 5779 5780 5782 5784 5786 5788 5789 5791 5793 5795 5796 5798 5799 5801 5803 5805 5807 5808 5810 5812 5814 5816 5818 5820 5822 5824 5826 5828 5830 5832 5833 5835 5836 5838 5840
5746 5747 5749 5751 5753 5755 5757 5759 5761 5762 5764 5766 5767 5769 5771 5773 5775 5777 5779 5781 5782 5784 5786 5787 5789 5791 5792 5794 5796 5798 5800 5802 5804 5806 5808 5810 5812 5814 5816 5818 5821 5823 5825 5826 5828 5830 5831 5833 5835
5738 5738 5740 5742 5743 5746 5748 5750 5752 5754 5756 5758 5760 5762 5763 5765 5767 5768 5770 5772 5774 5776 5777 5779 5781 5783 5785 5786 5788 5790 5792 5795 5797 5799 5801 5803 5805 5808 5810 5812 5814 5816 5819 5820 5822 5824 5826 5828 5830
5729 5730 5731 5732 5734 5736 5738 5741 5743 5745 5748 5750 5751 5753 5755 5756 5758 5760 5762 5763 5765 5767 5768 5770 5772 5774 5776 5778 5780 5782 5785 5787 5789 5791 5793 5795 5798 5800 5802 5805 5807 5809 5812 5814 5816 5818 5820 5822 5824
5721 5721 5722 5723 5724 5726 5729 5731 5733 5736 5738 5740 5741 5743 5745 5747 5749 5751 5752 5754 5756 5757 5759 5761 5763 5765 5767 5769 5771 5774 5776 5778 5781 5783 5785 5787 5789 5792 5794 5797 5799 5802 5804 5806 5809 5811 5813 5815 5817
5712 5712 5712 5713 5715 5716 5719 5721 5723 5726 5729 5730 5732 5734 5736 5737 5739 5741 5743 5744 5746 5748 5749 5751 5753 5755 5757 5759 5762 5764 5767 5769 5772 5774 5776 5779 5781 5783 5785 5788 5791 5793 5796 5798 5801 5803 5806 5808 5810
5704 5703 5704 5704 5705 5707 5709 5711 5713 5716 5718 5720 5722 5724 5726 5727 5729 5730 5732 5734 5736 5738 5739 5741 5743 5745 5747 5749 5752 5754 5757 5759 5762 5764 5767 5769 5771 5774 5776 5778 5781 5784 5787 5790 5792 5795 5798 5800 5803
5695 5694 5695 5695 5695 5696 5700 5702 5704 5705 5708 5710 5712 5713 5715 5717 5718 5720 5722 5723 5725 5727 5729 5730 5732 5734 5736 5738 5741 5743 5746 5749 5751 5754 5756 5759 5761 5764 5766 5768 5771 5774 5777 5780 5783 5786 5789 5791 5794
5687 5685 5685 5686 5686 5687 5689 5692 5694 5695 5697 5700 5701 5703 5704 5706 5707 5709 5710 5712 5714 5716 5718 5719 5721 5723 5725 5727 5729 5732 5734 5737 5739 5742 5745 5747 5749 5752 5755 5757 5760 5763 5766 5769 5772 5775 5779 5782 5785
5679 5677 5677 5677 5677 5678 5679 5681 5684 5684 5686 5689 5690 5692 5693 5695 5696 5698 5699 5701 5703 5705 5706 5708 5709 5711 5712 5714 5717 5719 5722 5724 5726 5729 5731 5734 5737 5739 5742 5745 5748 5751 5755 5758 5761 5764 5767 5771 5774
5670 5669 5669 5669 5668 5669 5670 5672 5673 5674 5676 5678 5679 5680 5682 5683 5685 5686 5688 5690 5691 5693 5694 5696 5697 5698 5699 5701 5703 5706 5708 5710 5713 5715 5718 5721 5723 5726 5729 5732 5735 5739 5742 5746 5749 5752 5756 5759 5762
5662 5661 5660 5661 5660 5660 5661 5663 5664 5664 5666 5667 5668 5669 5671 5672 5674 5675 5676 5678 5679 5680 5682 5683 5684 5685 5686 5687 5689 5692 5694 5696 5699 5701 5704 5707 5710 5713 5715 5718 5722 5725 5729 5732 5736 5740 5743 5747 5750
5654 5653 5653 5652 5652 5651 5652 5654 5655 5655 5656 5657 5658 5659 5661 5662 5663 5664 5665 5666 5667 5668 5669 5670 5671 5672 5673 5674 5675 5677 5680 5682 5684 5687 5690 5693 5696 5698 5701 5704 5708 5711 5715 5719 5722 5726 5730 5734 5737
5648 5646 5645 5645 5644 5644 5645 5644 5647 5647 5647 5647 5648 5649 5650 5651 5652 5653 5654 5654 5654 5655 5656 5657 5657 5658 5659 5660 5661 5663 5665 5668 5670 5673 5675 5678 5681 5684 5687 5690 5693 5697 5701 5705 5709 5712 5716 5720 5724
5642 5640 5639 5638 5637 5637 5637 5636 5638 5638 5638 5638 5638 5639 5640 5640 5641 5642 5642 5643 5643 5643 5643 5643 5644 5644 5645 5646 5647 5649 5651 5653 5655 5658 5661 5663 5666 5669 5672 5676 5679 5683 5687 5690 5694 5698 5702 5706 5710
5636 5635 5633 5632 5631 5630 5629 5628 5629 5629 5629 5629 5629 5629 5630 5630 5630 5631 5631 5631 5631 5630 5630 5630 5630 5631 5632 5633 5634 5635 5637 5638 5641 5643 5646 5649 5651 5655 5658 5661 5665 5669 5673 5676 5680 5684 5688 5692 5696
5631 5629 5627 5625 5624 5623 5622 5621 5622 5621 5621 5620 5620 5620 5620 5620 5620 5620 5619 5619 5619 5618 5618 5618 5618 5618 5618 5619 5620 5621 5623 5624 5627 5629 5632 5635 5637 5641 5644 5647 5651 5654 5658 5662 5666 5670 5674 5678 5682
5626 5624 5622 5619 5617 5617 5616 5614 5615 5614 5612 5611 5611 5611 5610 5610 5609 5609 5608 5607 5607 5606 5606 5605 5605 5605 5605 5605 5606 5608 5609 5611 5613 5615 5617 5620 5623 5626 5630 5633 5637 5640 5644 5648 5652 5656 5660 5664 5667
5621 5619 5617 5614 5611 5610 5609 5608 5608 5605 5604 5603 5602 5601 5600 5600 5599 5598 5596 5596 5595 5594 5593 5593 5592 5592 5592 5592 5593 5594 5595 5597 5599 5601 5604 5606 5609 5612 5615 5619 5623 5626 5630 5633 5637 5641 5646 5649 5653
5617 5614 5611 5608 5604 5602 5602 5601 5600 5598 5596 5595 5593 5592 5591 5590 5588 5587 5585 5584 5583 5582 5581 5580 5579 5579 5579 5579 5579 5580 5581 5583 5585 5588 5590 5593 5595 5598 5602 5605 5609 5612 5616 5619 5623 5627 5631 5635 5639
5612 5609 5605 5602 5599 5596 5594 5597 5593 5590 5588 5587 5585 5584 5582 5580 5578 5576 5575 5573 5572 5571 5569 5568 5567 5566 5566 5566 5566 5567 5568 5570 5572 5574 5577 5579 5582 5584 5588 5592 5595 5599 5602 5606 5610 5613 5617 5621 5625
5606 5603 5600 5598 5594 5590 5588 5591 5585 5582 5580 5578 5576 5575 5573 5571 5568 5566 5565 5563 5561 5559 5558 5557 5555 5554 5553 5553 5553 5554 5555 5557 5559 5561 5564 5565 5568 5571 5574 5578 5581 5585 5589 5592 5596 5600 5604 5608 5612